Simultaneous Nadir Overpasses (SNOs) Predictions

Prediction of SNOs near US between AQUA and NPP Satellite Orbit:

Table of predicted SNOs near US for the next 10.0 days since TLE Epoch: 4/8/2013
Index Date (AQUA) Time (AQUA) AQUA Lat,Lon Date (NPP) Time (NPP) NPP Lat,Lon Distance(km) Time Diff (sec)
1 04/08/2013 19:07:22 49.98, -92.70 04/08/2013 19:00:32 49.64, -94.57 139.67 410
2 04/08/2013 20:46:15 49.97,-117.42 04/08/2013 20:42:00 49.52,-119.90 184.97 255
3 04/14/2013 07:20:00 49.26, -76.36 04/14/2013 07:19:48 49.64, -78.62 168.94 12
4 04/14/2013 08:58:42 49.92,-100.81 04/14/2013 09:01:03 50.50,-103.61 209.78 141
5 04/16/2013 18:17:59 49.96, -80.33 04/16/2013 18:09:54 49.68, -81.91 117.98 485
6 04/16/2013 19:56:52 49.96,-105.04 04/16/2013 19:51:22 49.57,-107.23 163.25 330
7 04/16/2013 21:31:54
